Terminal Aerodrome Forecast
Issued by NWS

Home | Current Version | Previous Version | Text Only | Print | Product List | Glossary On
Versions: 1 2 3 4 5 6 7 8 9 10 11 12
000
FTUS44 KCRP 060540
TAFLRD
TAF
KLRD 060540Z 0606/0706 13016KT P6SM SCT040
     FM061100 15010KT P6SM SCT015 WS020/18040KT
     FM061500 16015G20KT P6SM BKN030 OVC100
     FM061700 16018G25KT P6SM SCT040 BKN100
     FM070400 13015KT P6SM SCT060=

USA.gov is the U.S. government's official web portal to all federal, state and local government web resources and services.